Regional Weather Roundup
Issued by NWS

Home | Current Version | Previous Version | Text Only | Print | Product List | Glossary On
Versions: 1 2 3 4 5 6 7 8 9 10 11 12 13 14 15 16 17 18 19 20 21 22 23 24 25 26 27
000
ASUS45 KREV 190910
RWRNV
NEVADA REGIONAL WEATHER ROUNDUP
NATIONAL WEATHER SERVICE RENO NV
100 AM PST FRI JAN 19 2018

NOTE: "FAIR" INDICATES FEW OR NO CLOUDS BELOW 12,000 FEET WITH NO
SIGNIFICANT WEATHER AND/OR OBSTRUCTIONS TO VISIBILITY.

NVZ001-003-004-191000-
WESTERN NEVADA

CITY           SKY/WX    TMP DP  RH WIND       PRES   REMARKS
RENO           CLOUDY    44  32  62 W9        29.87F
CARSON CITY    CLOUDY    41  32  70 SW6       29.91R
MINDEN         MOCLDY    41  32  70 W6        29.92F
FALLON         MOCLDY    46  19  34 W20       29.82S
LOVELOCK       CLOUDY    47  33  58 W18G24    29.83S
HAWTHORNE      CLEAR     55  27  33 S10       29.81S
$$

NVZ002-CAZ072-073-191000-
NORTHERN AND CENTRAL SIERRA

CITY           SKY/WX    TMP DP  RH WIND       PRES   REMARKS
S. LAKE TAHOE  LGT SNOW  32  30  92 S8        29.93S FOG
TRUCKEE        LGT SNOW  32  32 100 SW6       29.92F
SQUAW VLY 8000 NOT AVBL
SUSANVILLE     LGT RAIN  37  36  93 NW3       29.91R
BLUE CANYON    SNOW      32  32 100 SW8G20    29.97R VSB 1/4
MAMMOTH LAKES  MOCLDY    45  21  39 SE10G28   29.91F
$$

NVZ030-031-036-191000-
NORTHERN NEVADA

CITY           SKY/WX    TMP DP  RH WIND       PRES   REMARKS
ELKO           CLOUDY    49  21  33 W7G20     29.79F
WINNEMUCCA     LGT RAIN  41  33  73 W7        29.84R
WENDOVER       PTCLDY    26  22  84 CALM      29.84F
$$

NVZ035-037-191000-
CENTRAL NEVADA

CITY           SKY/WX    TMP DP  RH WIND       PRES   REMARKS
ELY            CLOUDY    44  27  51 SE23G31   29.91F
EUREKA           N/A     46  28  49 S20       29.86S
$$

NVZ013-014-191000-
SOUTH CENTRAL NEVADA

CITY           SKY/WX    TMP DP  RH WIND       PRES   REMARKS
TONOPAH        MOCLDY    41  30  65 S12       29.94F
$$

NVZ017-020-022-191000-
SOUTHERN NEVADA

CITY           SKY/WX    TMP DP  RH WIND       PRES   REMARKS
LAS VEGAS      MOCLDY    51  41  68 W3        29.97F
N. LAS VEGAS   MOCLDY    52  37  56 CALM      29.97F
NELLIS AFB     MOCLDY    52  38  58 N5        29.97F
HENDERSON      PTCLDY    51  36  56 S8        29.99F
MERCURY        MOCLDY    50  35  56 E14       29.95F
$$




USA.gov is the U.S. government's official web portal to all federal, state and local government web resources and services.